IFACO EDXW-EHAM

Flight info

Callsign IFACO
Flight time 1h 28m
Altitude 8000
Route OLDIP ROCZO LAZOQ P174 KUBAT T200 BLUFA BLUFA1A
Aircraft BE36/L-SDGY/L

Departure

Time 2026-04-27 19:18
Airport Westerland Sylt Airport (EDXW)

Arrival

Time 2026-04-27 20:47
Airport Amsterdam Airport Schiphol (EHAM)
Time Latitude Longitude Altitude Speed Heading
2026-04-27 18:59 54.91406 8.32437 21 ft 0 kts 263°
2026-04-27 19:07 54.91405 8.32435 21 ft 1 kts 239°
2026-04-27 19:07 54.91389 8.32434 21 ft 8 kts 162°
2026-04-27 19:07 54.91357 8.32532 21 ft 9 kts 113°
2026-04-27 19:08 54.91356 8.32537 21 ft 0 kts 114°
2026-04-27 19:08 54.91352 8.32543 21 ft 4 kts 158°
2026-04-27 19:08 54.91280 8.32572 22 ft 16 kts 171°
2026-04-27 19:08 54.91190 8.32607 22 ft 14 kts 160°
2026-04-27 19:09 54.91102 8.32703 22 ft 0 kts 143°
2026-04-27 19:09 54.91094 8.32716 22 ft 6 kts 128°
2026-04-27 19:09 54.91067 8.32853 24 ft 16 kts 111°
2026-04-27 19:09 54.91002 8.33022 27 ft 18 kts 131°
2026-04-27 19:10 54.90886 8.33168 30 ft 23 kts 153°
2026-04-27 19:10 54.90721 8.33227 29 ft 26 kts 182°
2026-04-27 19:10 54.90536 8.33254 28 ft 27 kts 168°
2026-04-27 19:10 54.90418 8.33337 28 ft 28 kts 146°
2026-04-27 19:11 54.90266 8.33691 27 ft 28 kts 104°
2026-04-27 19:11 54.90238 8.34009 27 ft 26 kts 95°
2026-04-27 19:11 54.90240 8.34229 28 ft 13 kts 77°
2026-04-27 19:11 54.90262 8.34393 29 ft 15 kts 79°
2026-04-27 19:12 54.90282 8.34584 29 ft 17 kts 83°
2026-04-27 19:12 54.90299 8.34752 30 ft 13 kts 78°
2026-04-27 19:12 54.90316 8.34921 30 ft 15 kts 78°
2026-04-27 19:12 54.90334 8.35065 30 ft 0 kts 55°
2026-04-27 19:13 54.90334 8.35066 30 ft 1 kts 53°
2026-04-27 19:13 54.90360 8.35125 30 ft 11 kts 54°
2026-04-27 19:14 54.90428 8.35159 31 ft 1 kts 326°
2026-04-27 19:18 54.90625 8.34915 31 ft 70 kts 326°
2026-04-27 19:18 54.91038 8.34337 324 ft 76 kts 325°
2026-04-27 19:18 54.91446 8.33721 615 ft 88 kts 325°
2026-04-27 19:18 54.92004 8.33111 996 ft 94 kts 332°
2026-04-27 19:19 54.92534 8.32481 1468 ft 92 kts 331°
2026-04-27 19:19 54.93073 8.31826 1857 ft 97 kts 330°
2026-04-27 19:19 54.93629 8.31148 2234 ft 101 kts 330°
2026-04-27 19:19 54.94205 8.30439 2629 ft 102 kts 329°
2026-04-27 19:20 54.94784 8.29723 3022 ft 102 kts 330°
2026-04-27 19:20 54.95364 8.29004 3416 ft 102 kts 330°
2026-04-27 19:20 54.95941 8.28285 3798 ft 102 kts 330°
2026-04-27 19:20 54.96513 8.27573 4179 ft 100 kts 329°
2026-04-27 19:21 54.97077 8.26873 4553 ft 99 kts 329°
2026-04-27 19:21 54.97633 8.26180 4920 ft 98 kts 328°
2026-04-27 19:21 54.98182 8.25500 5272 ft 97 kts 328°
2026-04-27 19:21 54.98683 8.24718 5601 ft 99 kts 304°
2026-04-27 19:22 54.98829 8.23528 5917 ft 104 kts 268°
2026-04-27 19:22 54.98526 8.22374 6230 ft 108 kts 234°
2026-04-27 19:22 54.98092 8.21296 6535 ft 109 kts 238°
2026-04-27 19:22 54.97651 8.20219 6838 ft 109 kts 237°
2026-04-27 19:23 54.97095 8.19266 7006 ft 125 kts 203°
2026-04-27 19:23 54.96206 8.18670 7017 ft 148 kts 204°
2026-04-27 19:23 54.95207 8.17911 7018 ft 164 kts 204°
2026-04-27 19:23 54.94146 8.17103 7012 ft 171 kts 205°
2026-04-27 19:24 54.93050 8.16266 7012 ft 172 kts 205°
2026-04-27 19:24 54.91955 8.15431 7011 ft 171 kts 205°
2026-04-27 19:24 54.90863 8.14595 7011 ft 171 kts 205°
2026-04-27 19:24 54.89773 8.13761 7008 ft 171 kts 205°
2026-04-27 19:25 54.88680 8.12929 7010 ft 171 kts 205°
2026-04-27 19:25 54.87588 8.12096 7012 ft 172 kts 205°
2026-04-27 19:25 54.86495 8.11261 7011 ft 172 kts 205°
2026-04-27 19:25 54.85401 8.10428 7012 ft 172 kts 205°
2026-04-27 19:26 54.84307 8.09596 7014 ft 172 kts 205°
2026-04-27 19:26 54.83213 8.08763 7013 ft 172 kts 205°
2026-04-27 19:26 54.82116 8.07928 7015 ft 172 kts 205°
2026-04-27 19:26 54.81015 8.07091 7013 ft 173 kts 205°
2026-04-27 19:27 54.79914 8.06254 7015 ft 173 kts 205°
2026-04-27 19:27 54.78834 8.05435 7121 ft 166 kts 205°
2026-04-27 19:27 54.77786 8.04640 7238 ft 164 kts 205°
2026-04-27 19:27 54.76735 8.03844 7331 ft 166 kts 205°
2026-04-27 19:28 54.75655 8.03025 7334 ft 172 kts 205°
2026-04-27 19:28 54.74548 8.02186 7341 ft 174 kts 205°
2026-04-27 19:28 54.73445 8.01350 7344 ft 173 kts 205°
2026-04-27 19:28 54.72347 8.00520 7343 ft 172 kts 205°
2026-04-27 19:29 54.71253 7.99693 7345 ft 172 kts 205°
2026-04-27 19:29 54.70161 7.98866 7344 ft 171 kts 205°
2026-04-27 19:29 54.69083 7.98052 7344 ft 171 kts 205°
2026-04-27 19:29 54.68000 7.97235 7406 ft 167 kts 205°
2026-04-27 19:30 54.66949 7.96443 7532 ft 163 kts 205°
2026-04-27 19:30 54.65920 7.95670 7648 ft 160 kts 204°
2026-04-27 19:30 54.64908 7.94905 7766 ft 157 kts 205°
2026-04-27 19:30 54.63908 7.94154 7888 ft 156 kts 205°
2026-04-27 19:31 54.62919 7.93408 8015 ft 155 kts 205°
2026-04-27 19:31 54.61934 7.92670 8135 ft 154 kts 205°
2026-04-27 19:31 54.60955 7.91933 8262 ft 153 kts 204°
2026-04-27 19:31 54.59974 7.91194 8341 ft 156 kts 205°
2026-04-27 19:32 54.58956 7.90428 8345 ft 162 kts 205°
2026-04-27 19:32 54.57909 7.89641 8354 ft 166 kts 204°
2026-04-27 19:32 54.56844 7.88843 8360 ft 168 kts 204°
2026-04-27 19:32 54.55768 7.88034 8355 ft 170 kts 204°
2026-04-27 19:33 54.54683 7.87222 8354 ft 170 kts 204°
2026-04-27 19:33 54.53961 7.86682 8355 ft 171 kts 204°
2026-04-27 19:33 54.52502 7.85588 8356 ft 171 kts 204°
2026-04-27 19:33 54.51407 7.84769 8357 ft 173 kts 204°
2026-04-27 19:34 54.50298 7.83940 8356 ft 175 kts 204°
2026-04-27 19:34 54.49181 7.83104 8358 ft 175 kts 204°
2026-04-27 19:34 54.48059 7.82268 8356 ft 176 kts 204°
2026-04-27 19:34 54.46950 7.81440 8356 ft 176 kts 204°
2026-04-27 19:35 54.45827 7.80600 8356 ft 176 kts 204°
2026-04-27 19:35 54.44700 7.79762 8358 ft 176 kts 204°
2026-04-27 19:35 54.43574 7.78923 8354 ft 177 kts 204°
2026-04-27 19:35 54.42448 7.78085 8353 ft 177 kts 204°
2026-04-27 19:36 54.41320 7.77244 8351 ft 177 kts 204°
2026-04-27 19:36 54.40193 7.76407 8352 ft 176 kts 204°
2026-04-27 19:36 54.39068 7.75569 8355 ft 176 kts 204°
2026-04-27 19:36 54.37942 7.74734 8352 ft 176 kts 204°
2026-04-27 19:37 54.36818 7.73899 8352 ft 176 kts 204°
2026-04-27 19:37 54.35693 7.73064 8352 ft 176 kts 204°
2026-04-27 19:37 54.34566 7.72228 8351 ft 176 kts 204°
2026-04-27 19:37 54.33438 7.71395 8351 ft 177 kts 204°
2026-04-27 19:38 54.32309 7.70558 8351 ft 177 kts 203°
2026-04-27 19:38 54.31182 7.69723 8351 ft 177 kts 204°
2026-04-27 19:38 54.30055 7.68889 8351 ft 177 kts 204°
2026-04-27 19:38 54.28926 7.68055 8354 ft 177 kts 203°
2026-04-27 19:39 54.27799 7.67222 8352 ft 177 kts 204°
2026-04-27 19:39 54.26671 7.66390 8353 ft 176 kts 204°
2026-04-27 19:39 54.25545 7.65559 8351 ft 176 kts 203°
2026-04-27 19:39 54.24420 7.64729 8352 ft 176 kts 203°
2026-04-27 19:40 54.23295 7.63899 8353 ft 176 kts 203°
2026-04-27 19:40 54.22172 7.63072 8351 ft 176 kts 203°
2026-04-27 19:40 54.21047 7.62245 8349 ft 176 kts 203°
2026-04-27 19:40 54.19923 7.61418 8350 ft 176 kts 203°
2026-04-27 19:41 54.18802 7.60593 8349 ft 176 kts 203°
2026-04-27 19:41 54.17679 7.59767 8347 ft 176 kts 203°
2026-04-27 19:41 54.16558 7.58944 8351 ft 175 kts 203°
2026-04-27 19:41 54.15437 7.58123 8350 ft 175 kts 203°
2026-04-27 19:42 54.14319 7.57301 8347 ft 175 kts 203°
2026-04-27 19:42 54.13199 7.56481 8349 ft 175 kts 203°
2026-04-27 19:42 54.12080 7.55661 8352 ft 175 kts 203°
2026-04-27 19:42 54.10961 7.54841 8351 ft 175 kts 203°
2026-04-27 19:43 54.09843 7.54023 8351 ft 175 kts 203°
2026-04-27 19:43 54.08725 7.53206 8352 ft 175 kts 203°
2026-04-27 19:43 54.07609 7.52388 8238 ft 172 kts 203°
2026-04-27 19:43 54.06521 7.51593 8100 ft 168 kts 203°
2026-04-27 19:44 54.05465 7.50823 7973 ft 167 kts 203°
2026-04-27 19:44 54.04382 7.50034 7844 ft 171 kts 203°
2026-04-27 19:44 54.03284 7.49231 7721 ft 172 kts 203°
2026-04-27 19:44 54.02478 7.48645 7631 ft 173 kts 203°
2026-04-27 19:45 54.01368 7.47836 7509 ft 174 kts 203°
2026-04-27 19:45 54.00261 7.47029 7386 ft 174 kts 203°
2026-04-27 19:45 53.99157 7.46225 7343 ft 169 kts 203°
2026-04-27 19:45 53.98068 7.45435 7343 ft 172 kts 202°
2026-04-27 19:46 53.97321 7.44893 7343 ft 174 kts 202°
2026-04-27 19:46 53.96201 7.44078 7348 ft 176 kts 202°
2026-04-27 19:46 53.95068 7.43257 7346 ft 178 kts 202°
2026-04-27 19:46 53.93930 7.42429 7345 ft 178 kts 202°
2026-04-27 19:47 53.92787 7.41600 7348 ft 179 kts 202°
2026-04-27 19:47 53.91640 7.40769 7275 ft 179 kts 202°
2026-04-27 19:47 53.90509 7.39948 7177 ft 176 kts 202°
2026-04-27 19:47 53.89384 7.39134 7071 ft 175 kts 202°
2026-04-27 19:48 53.88280 7.38336 6971 ft 175 kts 202°
2026-04-27 19:48 53.87164 7.37528 6873 ft 174 kts 202°
2026-04-27 19:48 53.86048 7.36721 6774 ft 174 kts 202°
2026-04-27 19:48 53.84932 7.35916 6669 ft 174 kts 202°
2026-04-27 19:49 53.83811 7.35108 6542 ft 179 kts 202°
2026-04-27 19:49 53.82644 7.34264 6395 ft 185 kts 202°
2026-04-27 19:49 53.81457 7.33408 6337 ft 184 kts 202°
2026-04-27 19:49 53.80287 7.32566 6342 ft 181 kts 202°
2026-04-27 19:50 53.79127 7.31731 6334 ft 180 kts 202°
2026-04-27 19:50 53.77974 7.30900 6331 ft 180 kts 202°
2026-04-27 19:50 53.76827 7.30076 6326 ft 179 kts 202°
2026-04-27 19:50 53.75682 7.29253 6330 ft 178 kts 202°
2026-04-27 19:51 53.74541 7.28433 6323 ft 178 kts 202°
2026-04-27 19:51 53.73401 7.27613 6330 ft 178 kts 202°
2026-04-27 19:51 53.72275 7.26806 6322 ft 178 kts 202°
2026-04-27 19:51 53.71136 7.25990 6327 ft 178 kts 202°
2026-04-27 19:52 53.69995 7.25172 6321 ft 178 kts 202°
2026-04-27 19:52 53.68855 7.24354 6327 ft 178 kts 202°
2026-04-27 19:52 53.67712 7.23537 6331 ft 178 kts 202°
2026-04-27 19:52 53.66570 7.22720 6329 ft 178 kts 202°
2026-04-27 19:53 53.64287 7.21088 6327 ft 178 kts 202°
2026-04-27 19:53 53.63146 7.20272 6332 ft 178 kts 202°
2026-04-27 19:53 53.62005 7.19458 6332 ft 178 kts 202°
2026-04-27 19:54 53.60865 7.18644 6331 ft 178 kts 202°
2026-04-27 19:54 53.59719 7.17829 6335 ft 179 kts 202°
2026-04-27 19:54 53.58569 7.17009 6330 ft 180 kts 203°
2026-04-27 19:54 53.57419 7.16189 6332 ft 180 kts 202°
2026-04-27 19:55 53.56267 7.15370 6337 ft 180 kts 203°
2026-04-27 19:55 53.55114 7.14549 6337 ft 180 kts 203°
2026-04-27 19:55 53.53962 7.13731 6341 ft 180 kts 203°
2026-04-27 19:55 53.52810 7.12913 6334 ft 180 kts 203°
2026-04-27 19:56 53.51657 7.12094 6336 ft 180 kts 203°
2026-04-27 19:56 53.50504 7.11275 6336 ft 180 kts 203°
2026-04-27 19:56 53.49349 7.10457 6329 ft 180 kts 203°
2026-04-27 19:56 53.48197 7.09639 6338 ft 180 kts 203°
2026-04-27 19:57 53.47044 7.08823 6338 ft 180 kts 203°
2026-04-27 19:57 53.45890 7.08006 6340 ft 180 kts 203°
2026-04-27 19:57 53.44738 7.07191 6334 ft 180 kts 202°
2026-04-27 19:57 53.43586 7.06377 6332 ft 180 kts 203°
2026-04-27 19:58 53.42434 7.05563 6341 ft 180 kts 203°
2026-04-27 19:58 53.41282 7.04749 6338 ft 180 kts 203°
2026-04-27 19:58 53.40129 7.03936 6333 ft 180 kts 203°
2026-04-27 19:58 53.38993 7.03134 6332 ft 180 kts 203°
2026-04-27 19:59 53.37842 7.02322 6338 ft 179 kts 203°
2026-04-27 19:59 53.36691 7.01512 6337 ft 179 kts 203°
2026-04-27 19:59 53.35540 7.00701 6331 ft 180 kts 203°
2026-04-27 19:59 53.34390 6.99892 6330 ft 179 kts 203°
2026-04-27 20:00 53.33290 6.98927 6323 ft 179 kts 219°
2026-04-27 20:00 53.32337 6.97600 6330 ft 179 kts 219°
2026-04-27 20:00 53.31361 6.96307 6323 ft 179 kts 219°
2026-04-27 20:00 53.30389 6.95015 6332 ft 179 kts 219°
2026-04-27 20:01 53.29418 6.93715 6326 ft 179 kts 219°
2026-04-27 20:01 53.28442 6.92412 6321 ft 179 kts 219°
2026-04-27 20:01 53.27471 6.91114 6317 ft 179 kts 219°
2026-04-27 20:01 53.26500 6.89818 6316 ft 179 kts 219°
2026-04-27 20:02 53.25529 6.88523 6302 ft 179 kts 219°
2026-04-27 20:02 53.24557 6.87227 6304 ft 179 kts 219°
2026-04-27 20:02 53.23585 6.85933 6299 ft 179 kts 219°
2026-04-27 20:02 53.22616 6.84641 6309 ft 179 kts 219°
2026-04-27 20:03 53.21643 6.83348 6303 ft 179 kts 219°
2026-04-27 20:03 53.20672 6.82056 6300 ft 179 kts 218°
2026-04-27 20:03 53.19701 6.80765 6311 ft 179 kts 218°
2026-04-27 20:03 53.18729 6.79474 6309 ft 179 kts 218°
2026-04-27 20:04 53.17770 6.78202 6310 ft 179 kts 218°
2026-04-27 20:04 53.16798 6.76911 6311 ft 179 kts 218°
2026-04-27 20:04 53.15825 6.75622 6310 ft 179 kts 218°
2026-04-27 20:04 53.14852 6.74333 6312 ft 179 kts 218°
2026-04-27 20:05 53.13881 6.73046 6312 ft 178 kts 218°
2026-04-27 20:05 53.12896 6.71743 6314 ft 178 kts 218°
2026-04-27 20:05 53.11938 6.70476 6310 ft 178 kts 218°
2026-04-27 20:05 53.10968 6.69192 6305 ft 178 kts 218°
2026-04-27 20:06 53.09996 6.67909 6315 ft 178 kts 218°
2026-04-27 20:06 53.09023 6.66624 6309 ft 179 kts 217°
2026-04-27 20:06 53.08050 6.65339 6310 ft 178 kts 217°
2026-04-27 20:06 53.07078 6.64058 6302 ft 178 kts 217°
2026-04-27 20:07 53.06106 6.62775 6309 ft 179 kts 217°
2026-04-27 20:07 53.05132 6.61493 6310 ft 179 kts 217°
2026-04-27 20:07 53.04159 6.60212 6311 ft 179 kts 217°
2026-04-27 20:07 53.03185 6.58931 6310 ft 179 kts 217°
2026-04-27 20:08 53.02211 6.57649 6309 ft 179 kts 217°
2026-04-27 20:08 53.01236 6.56369 6308 ft 179 kts 217°
2026-04-27 20:08 53.00262 6.55088 6306 ft 179 kts 217°
2026-04-27 20:08 52.99286 6.53808 6309 ft 179 kts 217°
2026-04-27 20:09 52.98311 6.52530 6305 ft 179 kts 217°
2026-04-27 20:09 52.97337 6.51252 6309 ft 178 kts 217°
2026-04-27 20:09 52.96364 6.49976 6308 ft 178 kts 217°
2026-04-27 20:09 52.95388 6.48700 6303 ft 178 kts 217°
2026-04-27 20:10 52.94415 6.47426 6306 ft 178 kts 217°
2026-04-27 20:10 52.93442 6.46153 6305 ft 178 kts 217°
2026-04-27 20:10 52.92468 6.44881 6299 ft 178 kts 217°
2026-04-27 20:10 52.91495 6.43608 6292 ft 178 kts 217°
2026-04-27 20:11 52.90522 6.42338 6292 ft 178 kts 217°
2026-04-27 20:11 52.89549 6.41069 6298 ft 178 kts 217°
2026-04-27 20:11 52.88576 6.39799 6290 ft 178 kts 217°
2026-04-27 20:11 52.87602 6.38531 6295 ft 178 kts 217°
2026-04-27 20:12 52.86628 6.37262 6292 ft 178 kts 217°
2026-04-27 20:12 52.85983 6.36423 6294 ft 178 kts 217°
2026-04-27 20:12 52.84682 6.34726 6294 ft 178 kts 217°
2026-04-27 20:12 52.83715 6.33444 6291 ft 178 kts 222°
2026-04-27 20:13 52.82975 6.31804 6289 ft 179 kts 236°
2026-04-27 20:13 52.82268 6.30111 6283 ft 179 kts 234°
2026-04-27 20:13 52.81564 6.28450 6287 ft 179 kts 234°
2026-04-27 20:13 52.80853 6.26761 6287 ft 179 kts 234°
2026-04-27 20:14 52.80142 6.25070 6288 ft 179 kts 234°
2026-04-27 20:14 52.79431 6.23373 6285 ft 179 kts 234°
2026-04-27 20:14 52.78719 6.21683 6285 ft 179 kts 234°
2026-04-27 20:14 52.78008 6.19994 6277 ft 179 kts 234°
2026-04-27 20:15 52.77297 6.18303 6285 ft 179 kts 234°
2026-04-27 20:15 52.76584 6.16611 6276 ft 180 kts 234°
2026-04-27 20:15 52.75869 6.14917 6281 ft 180 kts 234°
2026-04-27 20:15 52.75155 6.13223 6280 ft 180 kts 234°
2026-04-27 20:16 52.74440 6.11531 6280 ft 180 kts 234°
2026-04-27 20:16 52.73726 6.09840 6280 ft 179 kts 234°
2026-04-27 20:16 52.73012 6.08154 6277 ft 179 kts 234°
2026-04-27 20:16 52.72298 6.06465 6275 ft 179 kts 234°
2026-04-27 20:17 52.71584 6.04779 6277 ft 179 kts 234°
2026-04-27 20:17 52.70870 6.03090 6275 ft 179 kts 234°
2026-04-27 20:17 52.70154 6.01406 6276 ft 179 kts 234°
2026-04-27 20:17 52.69683 6.00292 6274 ft 179 kts 234°
2026-04-27 20:18 52.68729 5.98044 6277 ft 179 kts 235°
2026-04-27 20:18 52.68025 5.96389 6276 ft 179 kts 234°
2026-04-27 20:18 52.67312 5.94709 6274 ft 179 kts 234°
2026-04-27 20:18 52.66598 5.93033 6274 ft 179 kts 235°
2026-04-27 20:19 52.65885 5.91360 6275 ft 178 kts 235°
2026-04-27 20:19 52.65171 5.89683 6273 ft 178 kts 235°
2026-04-27 20:19 52.64458 5.88011 6278 ft 178 kts 235°
2026-04-27 20:19 52.63744 5.86338 6267 ft 178 kts 235°
2026-04-27 20:20 52.63032 5.84666 6276 ft 178 kts 235°
2026-04-27 20:20 52.62318 5.82996 6272 ft 178 kts 235°
2026-04-27 20:20 52.61605 5.81326 6277 ft 178 kts 235°
2026-04-27 20:20 52.60892 5.79656 6272 ft 178 kts 235°
2026-04-27 20:21 52.60179 5.77992 6281 ft 178 kts 235°
2026-04-27 20:21 52.59474 5.76343 6277 ft 178 kts 235°
2026-04-27 20:21 52.58760 5.74677 6278 ft 178 kts 235°
2026-04-27 20:21 52.58046 5.73011 6281 ft 178 kts 235°
2026-04-27 20:22 52.57332 5.71347 6271 ft 178 kts 235°
2026-04-27 20:22 52.56617 5.69683 6270 ft 178 kts 235°
2026-04-27 20:22 52.55902 5.68017 6279 ft 178 kts 235°
2026-04-27 20:22 52.55187 5.66351 6280 ft 178 kts 235°
2026-04-27 20:23 52.54470 5.64686 6284 ft 178 kts 236°
2026-04-27 20:23 52.53754 5.63021 6280 ft 179 kts 235°
2026-04-27 20:23 52.53034 5.61349 6149 ft 177 kts 236°
2026-04-27 20:23 52.52331 5.59718 6019 ft 171 kts 236°
2026-04-27 20:24 52.51650 5.58137 5883 ft 168 kts 236°
2026-04-27 20:24 52.51030 5.56533 5749 ft 164 kts 249°
2026-04-27 20:24 52.50670 5.54780 5616 ft 161 kts 252°
2026-04-27 20:24 52.50226 5.53132 5484 ft 161 kts 233°
2026-04-27 20:25 52.49412 5.51871 5356 ft 161 kts 222°
2026-04-27 20:25 52.48585 5.50612 5217 ft 163 kts 225°
2026-04-27 20:25 52.47773 5.49304 5104 ft 164 kts 226°
2026-04-27 20:25 52.46961 5.47980 4980 ft 165 kts 226°
2026-04-27 20:26 52.46145 5.46646 4845 ft 166 kts 226°
2026-04-27 20:26 52.45328 5.45312 4719 ft 166 kts 226°
2026-04-27 20:26 52.44507 5.43973 4594 ft 167 kts 226°
2026-04-27 20:26 52.43683 5.42629 4459 ft 167 kts 226°
2026-04-27 20:27 52.42857 5.41284 4333 ft 168 kts 226°
2026-04-27 20:27 52.42017 5.39915 4284 ft 170 kts 226°
2026-04-27 20:27 52.41179 5.38550 4284 ft 169 kts 226°
2026-04-27 20:27 52.40342 5.37191 4285 ft 169 kts 226°
2026-04-27 20:28 52.39509 5.35836 4282 ft 169 kts 226°
2026-04-27 20:28 52.38688 5.34502 4279 ft 168 kts 226°
2026-04-27 20:28 52.37858 5.33153 4280 ft 169 kts 226°
2026-04-27 20:28 52.37293 5.32239 4278 ft 169 kts 226°
2026-04-27 20:29 52.36192 5.30446 4277 ft 168 kts 227°
2026-04-27 20:29 52.35365 5.29105 4274 ft 167 kts 226°
2026-04-27 20:29 52.34540 5.27768 4271 ft 167 kts 227°
2026-04-27 20:29 52.33716 5.26435 4269 ft 167 kts 227°
2026-04-27 20:30 52.32892 5.25101 4268 ft 167 kts 227°
2026-04-27 20:30 52.32068 5.23768 4266 ft 167 kts 227°
2026-04-27 20:30 52.31247 5.22443 4265 ft 166 kts 227°
2026-04-27 20:30 52.30429 5.21119 4262 ft 166 kts 227°
2026-04-27 20:31 52.29607 5.19791 4263 ft 166 kts 226°
2026-04-27 20:31 52.28782 5.18461 4261 ft 167 kts 226°
2026-04-27 20:31 52.27956 5.17127 4254 ft 168 kts 226°
2026-04-27 20:31 52.27125 5.15789 4255 ft 167 kts 226°
2026-04-27 20:32 52.26299 5.14458 4255 ft 167 kts 226°
2026-04-27 20:32 52.25471 5.13123 4251 ft 167 kts 226°
2026-04-27 20:32 52.24642 5.11788 4251 ft 168 kts 226°
2026-04-27 20:32 52.23810 5.10454 4252 ft 168 kts 226°
2026-04-27 20:33 52.22978 5.09117 4124 ft 167 kts 226°
2026-04-27 20:33 52.22424 5.08227 4036 ft 164 kts 227°
2026-04-27 20:33 52.21612 5.06921 3860 ft 164 kts 226°
2026-04-27 20:33 52.20800 5.05617 3674 ft 164 kts 226°
2026-04-27 20:34 52.19988 5.04313 3495 ft 164 kts 226°
2026-04-27 20:34 52.19178 5.03013 3313 ft 164 kts 225°
2026-04-27 20:34 52.18366 5.01712 3134 ft 163 kts 225°
2026-04-27 20:34 52.17554 5.00412 2956 ft 164 kts 225°
2026-04-27 20:35 52.16749 4.99123 2771 ft 164 kts 224°
2026-04-27 20:35 52.15945 4.97833 2557 ft 160 kts 223°
2026-04-27 20:35 52.15160 4.96579 2356 ft 157 kts 224°
2026-04-27 20:35 52.14388 4.95344 2136 ft 155 kts 223°
2026-04-27 20:36 52.13628 4.94126 2001 ft 149 kts 222°
2026-04-27 20:36 52.12917 4.92981 1986 ft 140 kts 222°
2026-04-27 20:36 52.12248 4.91899 1987 ft 132 kts 223°
2026-04-27 20:36 52.11883 4.90622 1989 ft 124 kts 273°
2026-04-27 20:37 52.11892 4.89244 1991 ft 121 kts 272°
2026-04-27 20:37 52.11883 4.87885 1986 ft 119 kts 272°
2026-04-27 20:37 52.11879 4.86547 1992 ft 117 kts 272°
2026-04-27 20:37 52.11878 4.85223 1990 ft 116 kts 272°
2026-04-27 20:38 52.11880 4.83914 1996 ft 115 kts 272°
2026-04-27 20:38 52.11871 4.82610 1995 ft 115 kts 272°
2026-04-27 20:38 52.11867 4.81313 1990 ft 115 kts 272°
2026-04-27 20:38 52.11866 4.80018 1994 ft 114 kts 272°
2026-04-27 20:39 52.11869 4.78732 1991 ft 113 kts 276°
2026-04-27 20:39 52.12237 4.77762 1997 ft 99 kts 337°
2026-04-27 20:39 52.12799 4.77122 1990 ft 97 kts 331°
2026-04-27 20:39 52.13379 4.76768 1983 ft 87 kts 349°
2026-04-27 20:40 52.13940 4.76607 1997 ft 82 kts 11°
2026-04-27 20:40 52.14535 4.76567 2000 ft 88 kts
2026-04-27 20:40 52.15152 4.76558 2010 ft 89 kts
2026-04-27 20:40 52.15778 4.76577 2012 ft 90 kts
2026-04-27 20:41 52.16405 4.76608 2007 ft 90 kts
2026-04-27 20:41 52.17030 4.76642 2008 ft 90 kts
2026-04-27 20:41 52.17651 4.76696 2008 ft 89 kts 10°
2026-04-27 20:41 52.18271 4.76747 2006 ft 89 kts 11°
2026-04-27 20:42 52.18888 4.76809 2001 ft 89 kts
2026-04-27 20:42 52.19525 4.76868 1926 ft 95 kts 11°
2026-04-27 20:42 52.20163 4.76920 1810 ft 87 kts 12°
2026-04-27 20:42 52.20752 4.76978 1674 ft 83 kts 10°
2026-04-27 20:43 52.21315 4.77029 1529 ft 79 kts 10°
2026-04-27 20:43 52.21892 4.77078 1412 ft 89 kts
2026-04-27 20:43 52.22527 4.77141 1299 ft 92 kts 10°
2026-04-27 20:43 52.23170 4.77194 1188 ft 93 kts 10°
2026-04-27 20:44 52.23822 4.77252 1068 ft 94 kts 10°
2026-04-27 20:44 52.24465 4.77316 960 ft 89 kts
2026-04-27 20:44 52.25042 4.77369 855 ft 77 kts 10°
2026-04-27 20:44 52.25573 4.77413 757 ft 76 kts
2026-04-27 20:45 52.26104 4.77464 674 ft 76 kts
2026-04-27 20:45 52.26632 4.77514 605 ft 78 kts 10°
2026-04-27 20:45 52.27196 4.77562 521 ft 84 kts
2026-04-27 20:45 52.27759 4.77606 401 ft 74 kts
2026-04-27 20:46 52.28302 4.77614 296 ft 84 kts
2026-04-27 20:46 52.28890 4.77625 229 ft 83 kts
2026-04-27 20:46 52.29453 4.77812 173 ft 83 kts 21°
2026-04-27 20:46 52.29955 4.78244 68 ft 81 kts 37°
2026-04-27 20:47 52.30376 4.78823 -6 ft 69 kts 41°
2026-04-27 20:47 52.30592 4.79140 -13 ft 22 kts 41°
2026-04-27 20:47 52.30727 4.79330 -10 ft 29 kts 39°
2026-04-27 20:47 52.30879 4.79541 -12 ft 24 kts 49°
2026-04-27 20:48 52.30889 4.79644 -15 ft 8 kts 135°
2026-04-27 20:48 52.30871 4.79675 -15 ft 0 kts 138°
2026-04-27 20:48 52.30865 4.79684 -14 ft 3 kts 136°
2026-04-27 20:48 52.30838 4.79741 -12 ft 18 kts 116°
2026-04-27 20:49 52.30897 4.79927 -12 ft 21 kts 40°
2026-04-27 20:49 52.31008 4.80083 -12 ft 21 kts 39°
2026-04-27 20:49 52.31094 4.80209 -12 ft 0 kts 47°
2026-04-27 20:49 52.31078 4.80248 -12 ft 13 kts 157°
2026-04-27 20:50 52.31042 4.80316 -12 ft 5 kts 27°
2026-04-27 20:50 52.31103 4.80375 -12 ft 7 kts 351°
2026-04-27 20:50 52.31121 4.80326 -12 ft 0 kts 319°